Other Public Products
Issued by NWS Charleston, SC

Current Version | Previous Version | Graphics & Text | Print | Product List | Glossary On
Versions: 1 2 3 4 5 6 7 8 9 10 11 12 13 14 15 16 17 18 19 20 21 22 23 24 25 26 27 28 29 30 31 32 33 34 35 36 37 38 39 40 41 42 43 44 45 46 47 48 49 50
000
FPUS82 KCHS 221127
OPUCHS

TEST...KCHS/KSAV Gateway Observations...TEST
National Weather Service Charleston SC
700 AM EDT SAT JUL 22 2017

NOTE: "fair" indicates few or no clouds below 12,000 feet with no
significant weather and/or obstructions to visibility.

SCZ050-WAZ558-NCZ071-TXZ119-213-PAZ071-DCZ001-FLZ074-172-MI076-
NYZ176-178-MAZ016-IL014-TNZ027-NJZ106-GAZ044-MD014-221200-

...Gateway Observations for Charleston International...

CITY           SKY/WX    TMP DP  RH WIND       PRES   REMARKS
Chas Airport   PTCLDY    76  74  93 SW3       30.01R
Seattle        MOCLDY    65  53  65 SW5       30.16S
Charlotte      PTCLDY    76  70  82 CALM      29.99S
Dallas DFW     PTCLDY    80  73  79 S7        29.92R
Dallas Love    CLEAR     81  72  74 S8        29.93R
Philladelphia  PTSUNNY   80  74  81 NE6       29.87S
Wash National  CLOUDY    80  73  79 N12       29.90R
Baltimore      CLOUDY    78  75  90 NW7       29.88R
Miami          PTCLDY    78  74  87 CALM      30.07R
Detroit        LGT RAIN  74  71  91 S6        29.85F
Newark         PTSUNNY   80  65  59 N5        29.87S
Laguardia      PTSUNNY   80  69  69 N3        29.87R
J F K          PTSUNNY   81  71  71 NE3       29.88R
Boston Logan   CLOUDY    75  58  55 W10       29.85R
Ft. Lauderdale PTCLDY    79  74  84 CALM      30.06R
Chicago O`Hare LGT RAIN  73  69  87 NW14G22   29.80S
Chicago Midway LGT RAIN  73  71  93 S15G23    29.77F
Houston Bush   PTCLDY    77  75  93 CALM      29.97R
Houston Hobby  PTCLDY    80  76  87 CALM      29.96R
Nashville      PTCLDY    77  73  87 CALM      29.98R
Atlanta        PTCLDY    74  71  91 W5        30.02R

$$

GAZ044-118-TXZ119-213-NCZ071-DCZ001-MDZ014-506-PAZ021-071-NJZ106-
NYZ176-178-MAZ106-OHZ011-021-055-MIZ076-KYZ091-ILZ014-INZ047-
MNZ060-ONZ431-221200-

...Gateway Observations for Savannah International...

CITY           SKY/WX    TMP DP  RH WIND       PRES   REMARKS
Savannah Arpt  PTCLDY    74  71  91 CALM      30.03R
Atlanta        PTCLDY    74  71  91 W5        30.02R
Charlotte      PTCLDY    76  70  82 CALM      29.99S
Dallas DFW     PTCLDY    80  73  79 S7        29.92R
Houston Bush   PTCLDY    77  75  93 CALM      29.97R
Wash National  CLOUDY    80  73  79 N12       29.90R
Wash Dulles    MOCLDY    77  69  76 N9        29.91R
Baltimore      CLOUDY    78  75  90 NW7       29.88R
Philadelphia   PTSUNNY   80  74  81 NE6       29.87S
Newark         PTSUNNY   80  65  59 N5        29.87S
Laguardia      PTSUNNY   80  69  69 N3        29.87R
J F K          PTSUNNY   81  71  71 NE3       29.88R
Boston         CLOUDY    75  58  55 W10       29.85R
Pittsburg      DRZL/FOG  73  73 100 S3        29.93F VSB 3/4
Akron          CLOUDY    75  72  90 SW8       29.91S FOG
Cleveland      CLOUDY    76  71  85 S7        29.90S
Cincinnati     CLOUDY    77  76  96 SW5       29.91R
Columbus       TSTM      71  71 100 NW21G32   29.94R VSB 3/4
Detroit        LGT RAIN  74  71  91 S6        29.85F
Chicago O`Hare LGT RAIN  73  69  87 NW14G22   29.80S
Minneapolis    CLOUDY    71  65  81 SE6       29.80R
Indianapolis   CLOUDY    74  70  87 SE9       29.88F
Toronto Canada CLOUDY    72  57  60 W3        29.90R

$$




USA.gov is the U.S. government's official web portal to all federal, state and local government web resources and services.